P/2020 M1 ( PanSTARRS )

Japanese version
Home page
Updated on July 11, 2020

---------------------------------------------------------------------

* Profile

Discovery Date June 17, 2020
Magnitude 21.3 mag
Discoverer Pan-STARRS 1 telescope (Haleakala)

* Orbital Elements

Epoch 2019 Dec. 23.0 TT = JDT 2458840.5
T 2019 Dec. 20.99054 TT                                 Rudenko
q   2.6606234            (2000.0)            P               Q
n   0.08599953     Peri.   67.81292     -0.85286949     +0.51423669
a   5.0832171      Node   142.96153     -0.51704079     -0.80770328
e   0.4765867      Incl.    8.63260     -0.07268052     -0.28840256
P  11.5
From 39 observations 2020 May 24-July 8, mean residual 0".2.

* Magnitudes Graph

        m1 = 14.5 + 5 log d + 10.0 log r

---------------------------------------------------------------------

The orbital elements are published on M.P.E.C. 2020-N31.
The magnitudes graphs are made with Comet for Windows.

---------------------------------------------------------------------

Copyright(C) Seiichi Yoshida (comet@aerith.net). All rights reserved.